This demonstration page uses our WeatherBlox Daily Observations layout. Learn more.

Left ArrowRight Arrow

Hourly Observations for September 22, 2021

Temp ( °F °C ) Dew Point ( °F °C ) Humidity (%) Winds ( mph kmh ) Pressure ( in mb ) Visibility ( mi km ) Precip ( " mm )
12:54 am 00:54 Clear 45 7.2 41 5 86 86 N 5 7 30.38 1029 10 16 N/A
1:54 am 01:54 Clear 44 6.7 41 5 89 89 N N/A 30.38 1029 10 16 N/A
2:54 am 02:54 Clear 45 7.2 41 5 86 86 N N/A 30.37 1028 10 16 N/A
3:54 am 03:54 Clear 43 6.1 39 3.9 86 86 NNW 5 7 30.37 1028 10 16 N/A
4:54 am 04:54 Clear 41 5 39 3.9 93 93 N 3 6 30.37 1029 10 16 N/A
5:54 am 05:54 Clear 40 4.4 38 3.3 93 93 N 6 9 30.37 1029 10 16 N/A
6:54 am 06:54 Clear 43 6.1 39 3.9 86 86 W 3 6 30.38 1029 10 16 N/A
7:54 am 07:54 Sunny 45 7.2 40 4.4 83 83 N N/A 30.40 1029 10 16 N/A
8:54 am 08:54 Sunny 51 10.6 42 5.6 71 71 N N/A 30.39 1029 10 16 N/A
9:54 am 09:54 Sunny 57 13.9 42 5.6 58 58 N N/A 30.40 1029 10 16 N/A
10:54 am 10:54 Sunny 63 17.2 43 6.1 48 48 ESE 5 7 30.39 1029 10 16 N/A
11:54 am 11:54 Sunny 68 20 40 4.4 36 36 WSW 3 6 30.36 1028 10 16 N/A
12:54 pm 12:54 Sunny 70 21.1 40 4.4 34 34 VRB 6 9 30.34 1027 10 16 N/A
1:54 pm 13:54 Sunny 72 22.2 40 4.4 31 31 VRB 3 6 30.30 1026 10 16 N/A
2:54 pm 14:54 Sunny 74 23.3 40 4.4 29 29 VRB 7 11 30.26 1025 10 16 N/A
3:54 pm 15:54 Sunny 74 23.3 39 3.9 28 28 undefined N/A 30.24 1024 10 16 N/A
4:54 pm 16:54 Sunny 73 22.8 38 3.3 28 28 S 8 13 30.21 1023 10 16 N/A
5:54 pm 17:54 Sunny 73 22.8 38 3.3 28 28 ESE 5 7 30.19 1022 10 16 N/A
6:54 pm 18:54 Sunny 70 21.1 39 3.9 32 32 ESE 7 11 30.17 1022 10 16 N/A
7:54 pm 19:54 Clear 65 18.3 39 3.9 39 39 ESE 7 11 30.16 1021 10 16 N/A
8:54 pm 20:54 Clear 62 16.7 39 3.9 43 43 ESE 5 7 30.17 1022 10 16 N/A
9:54 pm 21:54 Clear 60 15.6 38 3.3 44 44 ESE 7 11 30.17 1022 10 16 N/A
10:54 pm 22:54 Clear 58 14.4 38 3.3 48 48 SE 7 11 30.16 1021 10 16 N/A
11:54 pm 23:54 Clear 58 14.4 38 3.3 48 48 SE 3 6 30.14 1021 10 16 N/A

Powered by AerisWeather